Weather observations for the past three days for
Pagosa Springs, Wolf Creek Pass
Imperial (Metric)
Date Time (mdt) Wind (mph) Vis. (mi.) Weather Sky Cond. Temperature (ºF) Relative Humidity Wind Chill (°F) Heat Index (°F) Pressure Precipitation (in)
Air Dwpt 6 hour altimeter (in) sea level (mb) 1 hr 3 hr 6 hr
Max. Min.
23 07:15 Calm 10.00 Fair CLR 48.2 33.8 58% 30.76 0.0
23 06:55 N 3 10.00 Fair CLR 48.2 33.8 58% 30.75 0.0
23 06:35 Calm 10.00 Fair CLR 46.4 32 57% 30.74 0.0
23 06:15 NW 5 10.00 Fair CLR 46.4 32 57% 45 30.74 0.0
23 05:55 NW 6 10.00 Fair CLR 46.4 32 57% 44 30.74 0.0
23 05:35 Calm 10.00 Fair CLR 46.4 32 57% 30.74 0.0
23 05:15 Calm 10.00 Fair CLR 46.4 32 57% 30.74 0.0
23 04:55 NW 3 10.00 Fair CLR 46.4 32 57% 30.74 0.0
23 04:35 NW 5 10.00 Fair CLR 48.2 32 54% 47 30.74 0.0
23 04:15 NW 5 10.00 Fair CLR 48.2 32 54% 47 30.74 0.0
23 03:55 NW 5 10.00 Fair CLR 48.2 32 54% 47 30.73 0.0
23 03:35 NW 3 10.00 Fair CLR 46.4 33.8 62% 30.74 0.0
23 03:15 NW 3 10.00 Fair CLR 48.2 33.8 58% 30.74 0.0
23 02:55 Calm 10.00 Fair CLR 48.2 35.6 62% 30.74 0.0
23 02:35 NW 5 10.00 Fair CLR 48.2 35.6 62% 47 30.74 0.0
23 02:15 N 3 10.00 Fair CLR 48.2 37.4 66% 30.74 0.0
23 01:55 Calm 10.00 Fair CLR 46.4 37.4 71% 30.76 0.0
23 01:35 Calm 10.00 Fair CLR 46.4 35.6 66% 30.76 0.0
23 01:15 Calm 10.00 Fair CLR 46.4 37.4 71% 30.77 0.0
23 00:55 SW 3 10.00 Fair CLR 46.4 37.4 71% 30.77 0.0
23 00:35 Calm 10.00 Fair CLR 46.4 37.4 71% 30.77 0.0
23 00:15 W 5 10.00 Fair CLR 46.4 35.6 66% 45 30.77 0.0
22 23:55 W 6 10.00 Fair CLR 46.4 35.6 66% 44 30.78 0.0
22 23:35 W 5 10.00 Fair CLR 46.4 35.6 66% 45 30.78 0.0
22 23:15 Calm 10.00 Partly Cloudy SCT055 SCT100 46.4 35.6 66% 30.78 0.0
22 22:55 Calm 10.00 Mostly Cloudy SCT055 SCT070 BKN110 46.4 33.8 62% 30.78 0.0
22 22:35 SE 3 10.00 Partly Cloudy SCT120 46.4 35.6 66% 30.78 0.0
22 22:15 E 5 10.00 Fair CLR 46.4 35.6 66% 45 30.78 0.0
22 21:55 NE 6 10.00 Partly Cloudy SCT060 42.8 39.2 87% 40 30.78 0.0
22 21:35 N 8 10.00 Overcast SCT050 BKN070 OVC080 41 41 100% 36 30.78 0.0
22 21:15 N 12 G 16 10.00 Overcast BKN050 BKN070 OVC080 42.8 41 93% 37 30.77 0.0
22 20:54 N 13 G 20 10.00 Drizzle SCT050 BKN060 OVC080 42.8 39.2 87% 37 30.76 0.0
22 20:35 N 15 G 21 10.00 Overcast SCT019 BKN042 OVC060 44.6 39.2 81% 38 30.76 0.0
22 20:15 N 8 G 16 10.00 Overcast SCT015 BKN043 OVC050 46.4 41 82% 43 30.76 0.0
22 19:55 W 6 10.00 Mostly Cloudy BKN050 BKN055 48.2 44.6 87% 46 30.76 0.0
22 19:35 SW 7 10.00 Partly Cloudy SCT050 50 44.6 82% 48 30.74 0.0
22 19:15 SW 7 10.00 Fair CLR 48.2 42.8 82% 46 30.74 0.0
22 18:55 SW 7 10.00 Fair CLR 48.2 41 76% 46 30.74 0.0
22 18:35 SW 8 10.00 Fair CLR 50 39.2 67% 47 30.73 0.0
22 18:15 SW 9 10.00 Fair CLR 50 41 71% 47 30.73 0.0
22 17:55 SW 7 10.00 Thunderstorm in Vicinity CLR 50 41 71% 48 30.72 0.0
22 17:35 SW 7 10.00 Fair CLR 50 42.8 76% 48 30.73 0.0
22 17:15 SW 6 10.00 Fair CLR 50 41 71% 48 30.74 0.0
22 16:55 SW 7 10.00 Partly Cloudy SCT090 SCT120 50 42.8 76% 48 30.74 0.0 0.02
22 16:35 SW 9 10.00 Thunderstorm in Vicinity SCT025 BKN090 OVC120 46.4 39.2 76% 42 30.74 0.0 0.02
22 16:15 S 15 G 23 5.00 Thunderstorm Light Rain in Vicinity SCT020 BKN028 OVC035 44.6 37.4 76% 38 30.74 0.0 0.02
22 15:55 NW 15 G 26 2.50 Thunderstorm Light Rain in Vicinity SCT020 SCT026 OVC031 44.6 37.4 76% 38 30.72 0.0 0.02
22 15:35 NW 10 G 17 10.00 Thunderstorm Rain SCT013 BKN031 OVC038 46.4 42.8 87% 42 30.75 0.0
22 15:15 Calm 10.00 Overcast SCT011 BKN020 OVC048 50 44.6 82% 30.76 0.0
22 14:55 W 6 10.00 Mostly Cloudy SCT017 SCT028 BKN055 53.6 46.4 77% 30.74 0.0
22 14:35 SW 7 10.00 Thunderstorm in Vicinity SCT013 55.4 46.4 72% 30.74 0.0
22 14:15 SW 8 10.00 Partly Cloudy SCT013 SCT017 53.6 50 88% 30.74 0.0
22 13:55 SW 9 10.00 Partly Cloudy SCT013 SCT018 SCT090 53.6 48.2 82% 30.74 0.0
22 13:35 SW 14 G 17 10.00 Mostly Cloudy SCT020 SCT035 BKN090 53.6 46.4 77% 30.75 0.0
22 13:15 SW 7 10.00 Mostly Cloudy SCT018 SCT023 BKN035 55.4 46.4 72% 30.76 0.0
22 12:55 SW 9 10.00 Partly Cloudy SCT016 53.6 46.4 77% 30.75 0.0
22 12:35 SW 9 10.00 Fair CLR 55.4 48.2 77% 30.76 0.0
22 12:15 W 5 10.00 Fair CLR 55.4 46.4 72% 30.76 0.0
22 11:55 SW 6 10.00 Fair CLR 55.4 44.6 67% 30.76 0.0
22 11:35 SW 5 10.00 Fair CLR 53.6 41 63% 30.76 0.0
22 11:15 SW 6 10.00 Fair CLR 53.6 42.8 67% 30.76 0.0
22 10:55 SW 3 10.00 Fair CLR 51.8 42.8 72% 30.76 0.0
22 10:35 SW 3 10.00 Fair CLR 50 46.4 88% 30.76 0.0
22 10:15 SW 7 10.00 Fair CLR 50 44.6 82% 48 30.75 0.0
22 09:55 SW 8 10.00 Fair CLR 48.2 41 76% 45 30.74 0.0
22 09:35 SW 8 10.00 Fair CLR 44.6 42.8 93% 41 30.74 0.0
22 09:15 W 8 10.00 Partly Cloudy SCT001 42.8 42.8 100% 39 30.74 0.0
22 08:55 W 7 0.15 Fog OVC001 42.8 42.8 100% 39 30.74 0.0
22 08:35 SW 8 0.25 Fog BKN001 41 41 100% 36 30.72 0.0
22 08:15 SW 8 0.25 Fog OVC001 41 41 100% 36 30.72 0.0
22 07:55 SW 9 0.15 Fog OVC001 41 41 100% 36 30.72 0.0
22 07:35 SW 10 0.15 Light Snow OVC001 41 41 100% 35 30.72 0.0
22 07:15 SW 10 0.15 Light Snow OVC001 41 41 100% 35 30.72 0.0
22 06:55 SW 9 0.15 Light Snow OVC001 41 41 100% 36 30.7 0.0
22 06:35 SW 12 0.15 Heavy Snow OVC001 41 41 100% 35 30.7 0.0
22 06:15 SW 12 0.15 Light Snow OVC001 41 41 100% 35 30.7 0.0
22 05:55 SW 10 0.15 Heavy Snow OVC001 41 41 100% 35 30.7 0.0
22 05:35 SW 14 G 21 0.15 Heavy Snow OVC001 41 41 100% 34 30.7 0.0
22 05:15 SW 15 G 21 0.25 Heavy Snow OVC001 41 41 100% 34 30.7 0.0
22 04:55 SW 15 0.25 Snow OVC001 41 41 100% 34 30.69 0.0
22 04:35 SW 15 0.25 Light Snow OVC001 41 41 100% 34 30.69 0.0
22 04:15 SW 15 G 20 0.25 Light Snow OVC001 41 41 100% 34 30.69 0.0
22 03:55 SW 14 0.25 Snow OVC001 41 41 100% 34 30.69 0.0
22 03:35 SW 13 0.25 Fog OVC001 41 41 100% 34 30.69 0.0
22 03:15 SW 14 0.25 Light Snow OVC001 41 41 100% 34 30.69 0.0
22 02:55 W 9 7.00 Fair CLR 41 41 100% 36 30.69 0.0
22 02:35 SW 9 10.00 Fair CLR 41 41 100% 36 30.69 0.0
22 02:15 SW 8 10.00 Fair CLR 41 41 100% 36 30.69 0.0
22 01:55 SW 6 1.50 Fog/Mist BKN002 BKN005 41 41 100% 38 30.69 0.0 0.03
22 01:35 SW 9 0.50 Fog OVC002 41 41 100% 36 30.69 0.0 0.03
22 01:15 SW 10 0.25 Light Rain OVC001 41 41 100% 35 30.72 0.0 0.03
22 00:55 SW 12 0.25 Fog OVC003 41 41 100% 35 30.71 0.0
22 00:35 SW 15 0.25 Unknown Precip OVC003 41 41 100% 34 30.7 0.0
22 00:15 SW 15 0.25 Fog BKN003 BKN012 OVC036 41 41 100% 34 30.72 0.0
21 23:55 SW 14 1.25 Fog/Mist BKN042 OVC048 41 41 100% 34 30.72 0.0
21 23:35 SW 12 10.00 Overcast SCT047 BKN060 OVC100 41 41 100% 35 30.71 0.0
21 23:15 SW 8 0.50 Light Rain BKN002 BKN012 OVC060 41 41 100% 36 30.7 0.0
21 22:55 W 7 0.50 Rain BKN004 OVC015 41 41 100% 37 30.72 0.0 0.04
21 22:35 SW 10 10.00 Light Drizzle SCT008 BKN038 OVC048 41 41 100% 35 30.7 0.0 0.02
21 22:15 SW 8 5.00 Rain SCT002 BKN029 OVC037 41 41 100% 36 30.7 0.0 0.01
21 21:55 W 9 G 20 10.00 Light Rain SCT011 BKN030 OVC060 41 41 100% 36 30.69 0.0
21 21:35 S 6 10.00 Overcast BKN050 OVC065 42.8 39.2 87% 40 30.69 0.0
21 21:15 W 6 10.00 Mostly Cloudy SCT050 BKN065 BKN095 42.8 41 93% 40 30.69 0.0
21 20:55 W 9 G 17 10.00 Overcast SCT035 SCT055 OVC095 42.8 39.2 87% 38 30.67 0.0 0.01
21 20:35 W 7 4.00 Rain SCT002 BKN049 OVC080 41 41 100% 37 30.65 0.0 0.01
21 20:15 SW 7 0.15 Fog OVC002 41 41 100% 37 30.67 0.0
21 19:55 S 13 G 23 0.25 Thunderstorm Light Rain in Vicinity OVC002 39.2 39.2 100% 32 30.68 0.0 0.1
21 19:35 SW 14 G 24 0.25 Light Rain OVC002 39.2 39.2 100% 32 30.69 0.0 0.09
21 19:15 SW 20 G 26 0.15 Thunderstorm Heavy Rain OVC002 41 41 100% 33 30.68 0.0 0.05
21 18:55 SW 12 G 23 0.15 Thunderstorm Rain in Vicinity OVC002 41 41 100% 35 30.66 0.0 0.22
21 18:35 S 8 0.25 Light Rain OVC002 41 41 100% 36 30.65 0.0 0.19
21 18:14 W 9 G 22 0.15 Thunderstorm Heavy Rain OVC002 41 41 100% 36 30.65 0.0 0.12
21 17:55 W 8 G 23 10.00 Thunderstorm Rain SCT012 BKN028 OVC050 44.6 42.8 93% 41 30.65 0.0 0.01
21 17:35 W 10 G 17 10.00 Thunderstorm Light Rain BKN008 BKN020 OVC070 44.6 44.6 100% 40 30.62 0.0
21 17:15 SW 7 G 16 10.00 Thunderstorm Light Drizzle SCT008 BKN015 OVC070 44.6 41 87% 41 30.61 0.0
21 16:55 W 8 10.00 Mostly Cloudy SCT019 SCT038 BKN049 44.6 41 87% 41 30.62 0.0
21 16:35 SW 6 10.00 Mostly Cloudy SCT023 SCT038 BKN060 44.6 37.4 76% 42 30.63 0.0
21 16:15 SW 7 10.00 Thunderstorm Drizzle in Vicinity SCT050 BKN070 BKN080 44.6 39.2 81% 41 30.63 0.0
21 15:55 SW 7 10.00 Thunderstorm Light Rain in Vicinity SCT030 BKN035 OVC048 42.8 39.2 87% 39 30.63 0.0 0.33
21 15:35 W 17 G 30 5.00 Thunderstorm Rain SCT012 SCT024 BKN033 42.8 41 93% 35 30.62 0.0 0.24
21 15:15 W 13 G 26 0.75 Thunderstorm Heavy Rain BKN009 OVC017 39.2 39.2 100% 32 30.64 0.0 0.18
21 14:55 SW 9 G 22 10.00 Mostly Cloudy SCT007 SCT011 BKN039 50 50 100% 47 30.65 0.0
21 14:35 SW 13 G 23 10.00 Mostly Cloudy BKN005 BKN023 BKN036 50 50 100% 46 30.65 0.0
21 14:15 W 16 G 22 1.75 Thunderstorm in Vicinity Fog/Mist BKN001 OVC008 46.4 46.4 100% 40 30.65 0.0
21 13:55 SW 7 G 25 0.25 Drizzle OVC001 46.4 46.4 100% 43 30.67 0.0
21 13:35 SW 14 G 23 0.15 Heavy Drizzle OVC001 46.4 46.4 100% 41 30.66 0.0
21 13:15 SW 13 G 25 0.50 Thunderstorm Drizzle OVC001 46.4 46.4 100% 41 30.67 0.0
21 12:55 SW 16 G 24 0.15 Snow OVC001 46.4 46.4 100% 40 30.67 0.0
21 12:35 SW 8 G 22 0.15 Heavy Snow OVC001 44.6 44.6 100% 41 30.67 0.0
21 12:15 SW 18 G 29 0.15 Snow OVC001 44.6 44.6 100% 37 30.67 0.0
21 11:55 SW 18 G 29 0.15 Heavy Snow OVC001 44.6 44.6 100% 37 30.67 0.0
21 11:35 SW 18 G 31 0.15 Heavy Snow OVC001 44.6 44.6 100% 37 30.67 0.0
21 11:15 SW 18 G 29 0.15 Heavy Snow OVC001 44.6 44.6 100% 37 30.67 0.0
21 10:55 SW 20 G 35 0.15 Thunderstorm Heavy Snow in Vicinity OVC001 44.6 44.6 100% 37 30.67 0.0
21 10:35 SW 22 G 30 0.15 Overcast and Breezy OVC001 42.8 42.8 100% 34 30.67 0.0
21 10:15 SW 15 G 26 0.15 Thunderstorm Heavy Snow OVC001 42.8 42.8 100% 36 30.67 0.0
21 09:55 SW 15 G 26 0.15 Heavy Snow OVC001 42.8 42.8 100% 36 30.66 0.0
21 09:35 SW 20 G 26 0.15 Heavy Snow OVC001 42.8 42.8 100% 35 30.66 0.0
21 09:15 SW 15 G 24 0.15 Heavy Snow OVC001 42.8 42.8 100% 36 30.67 0.0
21 08:55 S 17 G 37 0.15 Rain OVC001 41 41 100% 33 30.66 0.0 0.12
21 08:34 SW 14 G 22 0.15 Rain OVC001 41 41 100% 34 30.67 0.0 0.11
21 08:15 W 6 0.15 Heavy Rain OVC001 41 41 100% 38 30.67 0.0 0.02
21 07:54 S 13 G 22 0.15 Fog OVC001 42.8 42.8 100% 37 30.66 0.0
21 07:34 SW 12 G 20 10.00 Overcast OVC004 41 41 100% 35 30.67 0.0
21 07:14 S 8 10.00 Overcast OVC006 41 41 100% 36 30.67 0.0
21 06:54 SW 6 10.00 Overcast OVC008 41 41 100% 38 30.67 0.0
21 06:34 SW 8 10.00 Overcast BKN012 BKN026 OVC041 39.2 39.2 100% 34 30.67 0.0
21 06:14 SW 8 1.00 Fog/Mist BKN007 OVC014 39.2 39.2 100% 34 30.67 0.0
21 05:54 SW 7 10.00 Overcast SCT009 BKN016 OVC026 39.2 39.2 100% 35 30.67 0.0
21 05:34 SW 6 0.75 Fog/Mist BKN002 OVC011 39.2 39.2 100% 36 30.66 0.0
21 05:14 W 6 0.50 Fog BKN002 OVC007 39.2 39.2 100% 36 30.65 0.0
21 04:54 SW 8 0.50 Drizzle OVC002 39.2 39.2 100% 34 30.65 0.0 0.03
21 04:34 SW 9 0.25 Rain OVC002 37.4 37.4 100% 31 30.65 0.0 0.03
21 04:14 S 8 G 17 0.50 Heavy Rain OVC002 39.2 39.2 100% 34 30.65 0.0 0.02
21 03:54 SW 13 G 20 0.25 Unknown Precip OVC002 39.2 39.2 100% 32 30.65 0.0 0.09
21 03:34 SW 12 G 23 0.25 Rain OVC002 39.2 39.2 100% 33 30.65 0.0 0.02
21 03:14 S 13 G 21 0.50 Light Rain OVC002 39.2 39.2 100% 32 30.65 0.0 0.01
21 02:54 SW 13 G 24 0.25 Unknown Precip OVC002 39.2 39.2 100% 32 30.66 0.0 0.2
21 02:34 SW 15 G 22 0.25 Heavy Rain OVC002 41 41 100% 34 30.67 0.0 0.13
21 02:14 SW 18 G 35 0.25 Heavy Rain OVC002 41 41 100% 33 30.65 0.0 0.05
21 01:54 S 20 G 28 0.25 Light Rain OVC002 41 41 100% 33 0 0.0 0.09
21 01:34 SW 14 G 28 0.25 Rain OVC002 41 41 100% 34 30.67 0.0 0.04
21 01:14 S 18 G 25 0.50 Light Rain OVC002 41 41 100% 33 30.66 0.0 0.01
21 00:54 S 17 G 24 0.50 Light Rain OVC002 41 41 100% 33 30.67 0.0 0.06
21 00:34 S 10 G 18 1.00 Rain BKN008 BKN014 OVC021 41 41 100% 35 30.68 0.0 0.05
21 00:14 SW 9 G 16 7.00 Rain SCT012 BKN022 OVC027 41 41 100% 36 30.68 0.0 0.01
20 23:54 SW 14 G 23 3.00 Light Rain SCT019 BKN023 OVC035 41 41 100% 34 30.69 0.0 0.01
20 23:34 S 8 10.00 Light Rain SCT020 SCT025 OVC036 41 41 100% 36 30.69 0.0 0.01
20 23:14 S 10 10.00 Overcast SCT001 BKN041 OVC065 41 41 100% 35 30.69 0.0
20 22:54 SE 7 1.75 Drizzle SCT001 BKN030 OVC041 41 41 100% 37 30.69 0.0 0.04
20 22:34 W 8 5.00 Thunderstorm Light Rain in Vicinity SCT018 BKN030 OVC046 41 41 100% 36 30.68 0.0 0.04
20 22:14 SW 9 5.00 Light Rain SCT019 BKN031 OVC060 41 41 100% 36 30.69 0.0 0.01
20 21:54 S 3 10.00 Drizzle SCT023 BKN036 OVC075 41 41 100% 30.69 0.0
20 21:34 Calm 10.00 Overcast SCT025 BKN033 OVC065 42.8 42.8 100% 30.69 0.0
20 21:14 W 3 10.00 Overcast SCT023 OVC030 42.8 41 93% 30.68 0.0
20 20:54 Calm 10.00 Overcast SCT023 BKN028 OVC036 41 41 100% 30.67 0.0 0.01
20 20:34 Calm 10.00 Overcast BKN021 OVC028 42.8 42.8 100% 30.68 0.0 0.01
20 20:14 W 5 10.00 Overcast SCT001 SCT008 OVC019 42.8 42.8 100% 41 30.67 0.0 0.01
20 19:54 W 5 0.50 Thunderstorm Rain OVC001 42.8 42.8 100% 41 30.67 0.0 0.23
20 19:34 Calm 4.00 Thunderstorm Rain SCT006 BKN013 OVC027 42.8 42.8 100% 30.67 0.0 0.17
20 19:14 S 17 G 33 1.25 Thunderstorm Heavy Rain SCT018 BKN030 OVC036 42.8 42.8 100% 35 30.64 0.0 0.13
20 18:54 S 18 G 24 10.00 Thunderstorm in Vicinity SCT035 BKN043 OVC060 42.8 42.8 100% 35 30.61 0.0 0.04
20 18:34 S 14 G 22 10.00 Thunderstorm Light Rain SCT032 BKN046 OVC110 46.4 39.2 76% 41 30.62 0.0 0.01
20 18:14 SE 15 G 22 10.00 Thunderstorm Rain BKN032 BKN040 OVC070 50 42.8 76% 45 30.63 0.0
20 17:54 S 9 10.00 Light Rain SCT036 BKN050 OVC080 50 44.6 82% 47 30.62 0.0 0.01
20 17:34 S 8 10.00 Partly Cloudy SCT043 SCT050 SCT075 51.8 42.8 72% 30.63 0.0
20 17:14 S 7 10.00 Thunderstorm in Vicinity SCT040 SCT048 51.8 42.8 72% 30.63 0.0
20 16:54 S 8 10.00 Mostly Cloudy BKN040 BKN046 51.8 42.8 72% 30.63 0.0
20 16:34 S 7 10.00 Mostly Cloudy SCT036 BKN042 BKN049 51.8 41 67% 30.63 0.0
20 16:14 SE 7 10.00 Mostly Cloudy SCT035 BKN046 BKN055 50 42.8 76% 48 30.64 0.0
20 15:54 Calm 4.00 Light Rain SCT037 BKN048 BKN060 46.4 42.8 87% 30.65 0.0 0.06
20 15:34 Calm 10.00 Thunderstorm Rain in Vicinity SCT026 BKN045 OVC060 46.4 41 82% 30.67 0.0 0.02
20 15:14 S 6 5.00 Light Rain SCT027 BKN031 OVC047 42.8 37.4 81% 40 30.69 0.0 0.01
20 14:54 NW 3 7.00 Thunderstorm Rain in Vicinity SCT027 BKN031 OVC047 44.6 37.4 76% 30.7 0.0 0.02
20 14:34 Calm 10.00 Light Rain SCT037 SCT045 BKN060 42.8 37.4 81% 30.72 0.0
20 14:14 N 3 10.00 Thunderstorm in Vicinity SCT023 SCT033 BKN050 42.8 35.6 76% 30.69 0.0
20 13:54 S 17 G 32 7.00 Mostly Cloudy SCT025 BKN031 BKN041 44.6 35.6 71% 38 30.73 0.0 0.01
20 13:34 S 24 G 39 10.00 Thunderstorm in Vicinity and Breezy SCT023 SCT037 BKN110 50 33.8 54% 43 30.7 0.0
20 13:14 SW 10 G 21 10.00 Mostly Cloudy SCT021 SCT026 BKN065 51.8 44.6 77% 30.72 0.0
20 12:54 S 17 G 33 10.00 Light Rain SCT018 SCT024 SCT035 53.6 44.6 72% 30.69 0.0 0.01
20 12:34 S 12 G 23 10.00 Fair CLR 53.6 44.6 72% 30.7 0.0
20 12:14 SW 13 G 17 10.00 Partly Cloudy SCT039 SCT060 SCT070 51.8 48.2 88% 30.72 0.0
20 11:54 SW 12 G 24 10.00 Rain SCT008 BKN018 OVC075 46.4 46.4 100% 42 30.73 0.0
20 11:34 SW 14 G 20 10.00 Mostly Cloudy SCT006 BKN015 BKN044 46.4 46.4 100% 41 30.72 0.0
20 11:14 SW 14 G 21 10.00 Light Rain SCT002 SCT024 BKN043 46.4 46.4 100% 41 30.72 0.0
20 10:54 SW 9 G 16 4.00 Rain SCT010 BKN037 OVC060 42.8 42.8 100% 38 30.73 0.0 0.06
20 10:34 SW 12 G 22 10.00 Light Rain SCT005 BKN018 OVC060 44.6 44.6 100% 39 30.72 0.0
20 10:14 SW 14 G 20 10.00 Overcast SCT001 BKN006 OVC055 44.6 44.6 100% 39 30.72 0.0
20 09:54 SW 8 3.00 Fog/Mist SCT004 BKN007 OVC012 44.6 44.6 100% 41 30.72 0.0
20 09:34 S 12 G 17 10.00 Overcast SCT004 OVC012 44.6 44.6 100% 39 30.72 0.0
20 09:14 S 12 G 17 10.00 Thunderstorm SCT005 OVC010 44.6 44.6 100% 39 30.72 0.0
20 08:54 S 12 G 16 10.00 Overcast SCT003 OVC012 42.8 42.8 100% 37 30.71 0.0
20 08:34 S 10 0.15 Fog OVC003 41 41 100% 35 30.7 0.0
20 08:14 SW 10 G 21 0.50 Thunderstorm Fog OVC001 42.8 42.8 100% 38 30.69 0.0
20 07:54 SW 13 G 20 0.15 Unknown Precip OVC001 41 41 100% 34 30.69 0.0
Date Time (mdt) Wind (mph) Vis. (mi.) Weather Sky Cond. Air Dwpt Max. Min. Relative Humidity Wind Chill (°F) Heat Index (°F) altimeter (in) sea level (mb) 1 hr 3 hr 6 hr
6 hour
Temperature (ºF) Pressure Precipitation (in)